Wind_Speed
14 14 15 16 17 17 18 18 19 20 21 22 22 23 23 23 24 24 24 24 25 25 24 24 25 24 24 24 23 23 23 22 22 22 21 21 21 22 21 21 21 20 19 18
16 16 16 18 18 18 18 19 20 21 21 21 21 22 23 23 23 24 24 25 25 25 25 24 23 24 24 24 24 23 22 21 21 21 21 22 22 22 22 21 20 20 18 18
17 17 18 19 19 19 19 19 20 20 21 21 21 23 23 23 23 24 25 25 26 25 24 24 24 24 23 24 24 22 21 21 20 20 20 22 22 22 20 20 19 19 18 18
18 19 19 19 19 19 19 19 20 21 21 22 22 23 23 24 24 24 25 25 24 24 23 24 24 24 24 24 23 23 22 22 21 21 22 23 22 21 20 19 19 18 18 17
18 18 19 20 20 20 20 20 20 21 22 22 22 23 24 24 24 24 25 24 24 23 23 23 23 24 24 24 23 23 23 22 22 22 23 22 22 21 20 19 18 19 18 18
19 19 20 21 21 21 21 21 22 22 22 23 23 24 24 25 25 25 25 25 24 23 23 23 23 23 24 24 23 23 23 23 22 23 22 22 21 21 20 19 18 18 18 18
20 20 22 22 21 21 21 23 23 23 23 24 24 25 25 25 25 25 25 24 24 24 24 24 24 24 24 23 23 23 23 23 23 23 23 22 21 20 19 18 17 17 17 16
20 21 23 23 22 22 22 23 23 24 24 25 25 25 26 26 25 25 25 24 24 24 24 24 24 24 24 24 24 23 23 23 23 22 22 21 20 19 18 17 15 16 15 15
22 23 23 23 22 22 22 23 24 24 25 25 25 25 25 26 25 25 25 25 25 25 24 24 24 24 24 24 23 23 23 23 22 21 21 20 19 18 17 16 15 15 16 16
23 23 23 23 23 23 23 24 24 25 25 25 25 25 25 26 25 25 25 25 25 24 24 24 24 24 24 23 23 23 23 23 23 22 21 19 18 18 18 17 16 17 17 17
24 24 24 23 23 24 24 24 25 25 25 25 25 25 25 25 25 25 25 25 25 24 24 24 24 24 24 24 24 24 24 24 23 22 20 19 18 19 18 17 17 17 17 16
24 24 24 24 24 24 24 24 25 25 25 24 24 24 25 25 25 25 25 25 24 24 25 24 24 24 24 24 25 25 25 24 23 21 19 18 19 18 18 17 17 16 15 15
25 25 25 25 25 25 25 25 25 25 25 25 24 25 25 25 25 25 25 25 25 25 26 26 25 25 25 25 24 25 24 22 21 20 19 18 18 18 16 16 15 15 15 14
26 26 26 26 26 26 26 26 26 26 25 26 26 26 26 26 26 26 26 27 27 27 27 27 26 26 25 25 25 24 23 22 21 19 18 18 16 16 16 15 15 15 15 14
27 27 27 27 27 27 27 27 27 27 27 27 27 27 27 27 27 27 28 28 28 28 28 27 27 26 26 25 24 23 22 21 19 17 16 16 15 15 15 15 15 14 14 14
28 28 28 28 28 28 28 28 28 28 28 28 28 28 28 28 28 29 29 29 29 29 29 29 28 28 26 25 23 23 21 19 17 17 16 15 15 15 15 15 15 15 15 14
29 29 29 29 29 29 29 29 29 29 29 30 30 30 30 29 29 30 30 30 30 30 29 29 29 28 26 25 23 22 20 19 17 17 15 15 15 16 16 15 15 14 15 15
30 30 30 30 30 29 29 30 30 30 30 31 31 31 31 31 31 31 31 31 31 30 29 29 28 27 25 24 22 21 19 18 18 17 16 16 16 16 16 15 15 15 15 15
31 31 31 31 31 31 31 31 31 32 32 32 32 32 32 31 31 31 30 30 30 30 29 28 27 26 24 22 21 20 20 19 18 17 16 16 16 16 16 16 16 16 16 16
32 33 32 32 31 31 32 32 32 32 32 32 32 32 31 31 30 30 29 29 29 29 27 26 25 24 22 21 21 20 19 18 18 18 17 17 16 16 16 16 16 16 16 16
33 33 33 32 32 32 32 33 33 33 32 32 32 31 30 30 30 29 29 28 28 27 25 24 23 22 22 21 21 19 18 17 17 17 17 17 17 16 16 16 16 16 16 16
32 32 32 32 32 32 33 33 33 33 32 31 30 30 30 29 29 28 27 27 26 25 24 24 23 22 21 21 19 18 17 17 17 16 16 16 16 16 16 15 15 15 15 15
32 32 32 32 33 33 33 33 33 32 31 31 31 31 31 30 28 27 26 25 25 24 23 22 21 21 20 20 19 18 17 16 16 15 15 16 16 16 15 15 15 14 14 13
31 31 31 32 31 32 31 31 31 31 30 30 30 30 29 28 27 26 25 24 24 23 22 21 20 20 20 19 19 18 17 16 16 16 15 15 15 15 15 14 14 13 12 11
31 31 31 31 31 30 30 30 30 30 30 30 29 28 27 25 24 23 23 23 22 22 21 21 21 20 20 19 18 18 17 17 16 15 15 15 15 15 14 13 13 11 10 10
30 30 30 30 29 29 29 29 29 29 29 28 28 26 25 24 23 23 23 23 22 22 21 21 21 20 19 18 18 18 19 18 17 15 15 15 14 14 14 13 13 12 11 10
29 29 29 28 28 28 28 29 29 28 27 27 26 25 24 23 23 23 22 22 22 21 21 20 20 19 19 18 18 19 19 18 16 16 15 15 14 14 13 12 12 12 11 10
Wind_Direction
281 283 286 289 291 291 291 292 294 297 300 302 306 310 313 315 317 318 318 319 320 319 317 318 317 318 320 320 318 317 315 312 310 309 308 310 310 308 307 305 303 300 296 291
282 284 285 287 289 291 292 292 295 298 300 302 307 311 314 315 317 316 317 318 320 318 317 317 318 320 320 318 316 315 314 312 310 309 309 312 312 310 309 306 303 302 297 290
283 284 286 287 289 290 292 294 297 299 301 305 307 311 314 315 316 316 317 318 319 318 317 317 317 318 318 317 316 315 315 313 311 312 314 315 315 313 310 306 302 300 295 289
284 286 287 288 289 292 294 296 297 299 302 306 308 312 315 316 314 315 316 317 317 316 315 316 316 317 316 317 318 317 316 314 312 312 314 316 315 312 308 305 300 301 299 293
286 289 290 290 291 293 295 296 298 299 301 305 307 311 313 315 316 316 316 316 316 315 315 316 317 317 317 317 317 317 316 314 314 315 317 316 313 310 309 307 303 302 302 299
285 287 289 291 293 293 294 295 298 299 301 305 307 309 311 313 315 316 316 317 316 315 316 318 319 319 319 318 318 317 315 314 313 315 317 317 315 313 311 310 308 303 302 301
282 285 286 289 292 292 292 295 298 299 302 305 307 308 310 312 313 314 314 315 315 314 314 315 316 316 317 317 316 316 316 314 314 315 316 316 316 315 312 311 310 306 304 302
282 283 284 289 289 290 293 295 297 299 301 304 306 307 308 311 313 315 314 314 314 313 312 313 313 314 315 315 315 315 316 315 315 314 315 314 314 313 311 310 309 310 308 306
278 281 284 287 288 291 293 295 297 299 300 301 304 306 309 312 314 315 314 314 315 315 313 313 313 314 315 314 314 315 317 317 316 314 314 313 313 312 311 310 310 311 309 308
277 279 282 284 286 290 292 295 297 299 300 302 304 306 309 311 313 314 315 315 315 316 314 313 314 315 315 314 314 316 316 316 315 314 312 310 309 310 311 309 309 309 309 307
275 277 280 283 286 289 291 293 296 298 300 301 302 304 307 309 311 313 313 314 314 315 313 311 312 313 312 312 313 314 315 314 313 313 309 307 307 308 308 307 307 308 309 307
276 277 279 282 285 287 289 292 295 297 299 300 301 302 305 306 309 310 311 311 312 312 312 313 313 312 311 311 311 313 314 313 313 312 310 308 308 308 307 308 309 310 312 311
274 276 278 280 282 284 287 290 293 295 298 299 300 302 304 305 306 308 309 309 310 310 311 311 311 311 310 311 312 312 313 312 311 310 310 310 310 309 308 311 311 316 318 315
274 276 278 279 281 284 286 289 291 293 295 297 298 300 301 302 303 304 304 305 306 307 308 309 309 311 311 311 311 312 311 310 309 309 309 309 309 310 312 312 314 317 317 318
274 276 277 279 281 283 286 288 290 291 293 294 296 297 298 299 299 300 302 303 304 305 305 306 307 308 309 310 311 310 309 309 308 307 306 306 308 310 312 312 314 317 316 317
273 275 277 279 281 283 285 286 288 290 291 292 293 294 295 296 297 299 300 302 302 303 303 304 305 304 304 305 306 306 305 305 304 302 302 302 305 306 308 310 311 313 313 312
273 275 277 279 280 282 284 285 286 287 289 290 291 292 292 293 295 297 299 300 301 301 302 302 302 302 301 300 300 300 301 300 299 298 298 300 302 303 306 307 306 307 309 309
274 275 277 279 280 281 283 284 284 285 286 288 289 290 290 291 293 295 297 298 300 300 300 301 301 301 300 298 297 297 297 297 295 294 294 296 300 302 303 305 305 303 302 305
274 276 278 278 279 280 281 282 283 284 285 287 289 290 291 291 293 295 297 298 299 299 300 300 300 301 299 296 294 294 295 295 293 293 293 293 296 299 301 302 302 301 302 303
274 276 276 277 279 280 281 281 283 284 286 287 288 290 291 292 293 295 297 299 300 301 302 301 300 300 299 297 294 293 292 290 290 291 292 291 292 295 297 299 300 301 302 302
274 275 276 277 278 279 280 281 282 284 285 286 288 289 290 291 292 293 296 298 299 301 301 300 299 297 298 298 295 292 290 289 288 290 290 291 292 293 294 297 299 302 302 303
274 275 276 277 278 279 279 281 282 284 285 285 286 288 289 290 291 292 294 295 297 298 298 298 297 295 294 295 294 292 291 290 287 287 288 290 291 291 293 296 299 301 301 303
272 274 275 276 277 278 279 280 282 283 284 285 287 288 289 290 289 289 290 292 294 296 296 297 297 295 294 294 295 295 293 291 288 287 287 289 289 290 292 295 298 301 300 300
273 274 275 276 277 278 279 280 282 283 284 285 287 288 289 288 287 288 289 290 292 292 293 295 295 294 294 295 294 293 292 290 288 286 286 286 286 286 290 294 298 301 298 298
273 274 275 276 276 278 279 279 281 283 283 285 286 286 286 286 285 285 285 287 290 290 290 291 292 293 294 292 290 291 290 288 288 286 283 283 283 284 285 286 289 291 295 301
272 273 274 274 275 277 279 280 281 282 282 283 283 283 283 282 282 282 283 285 287 288 288 288 289 290 291 290 289 290 291 288 286 283 282 283 283 282 281 280 280 283 288 293
271 271 272 273 274 276 278 280 281 281 280 280 280 279 280 280 280 280 281 283 285 286 286 287 287 287 287 287 287 289 288 285 282 280 280 282 281 279 279 277 276 277 280 286
Height
5836 5835 5834 5833 5832 5830 5829 5827 5826 5824 5821 5818 5814 5811 5807 5804 5800 5797 5793 5790 5786 5782 5778 5774 5769 5765 5761 5756 5751 5747 5743 5740 5737 5733 5730 5727 5724 5721 5718 5715 5713 5710 5708 5706
5832 5831 5830 5828 5827 5826 5824 5822 5820 5818 5816 5812 5809 5806 5803 5799 5796 5792 5788 5785 5781 5777 5773 5769 5764 5760 5756 5751 5747 5743 5739 5735 5732 5729 5726 5723 5719 5716 5713 5710 5707 5705 5703 5701
5828 5827 5826 5824 5823 5821 5819 5817 5815 5813 5811 5807 5805 5801 5798 5795 5791 5787 5783 5780 5776 5772 5768 5764 5760 5755 5751 5746 5742 5738 5735 5731 5728 5725 5722 5718 5715 5711 5708 5705 5702 5700 5698 5696
5823 5823 5821 5821 5818 5816 5814 5812 5810 5808 5805 5803 5800 5796 5793 5790 5786 5783 5779 5775 5771 5767 5763 5759 5755 5750 5746 5742 5738 5734 5731 5727 5724 5721 5717 5714 5710 5707 5704 5701 5698 5695 5693 5691
5818 5817 5816 5815 5813 5811 5809 5807 5805 5803 5800 5797 5794 5791 5788 5785 5781 5778 5774 5770 5766 5762 5758 5754 5750 5746 5742 5738 5734 5730 5727 5723 5720 5716 5713 5709 5706 5702 5699 5696 5693 5690 5688 5685
5813 5812 5811 5810 5807 5805 5805 5802 5800 5797 5795 5792 5789 5787 5784 5780 5776 5772 5769 5765 5760 5757 5753 5749 5745 5741 5738 5734 5730 5726 5723 5719 5716 5712 5708 5705 5701 5697 5694 5691 5688 5686 5683 5681
5807 5806 5805 5803 5802 5801 5800 5798 5794 5791 5789 5787 5784 5781 5778 5774 5771 5767 5763 5759 5755 5752 5748 5744 5741 5737 5733 5729 5726 5722 5718 5715 5711 5707 5703 5700 5696 5693 5689 5686 5684 5681 5679 5676
5802 5801 5800 5797 5796 5795 5793 5790 5788 5785 5783 5781 5778 5775 5772 5768 5765 5761 5758 5754 5750 5746 5743 5739 5736 5732 5728 5725 5721 5717 5714 5710 5706 5703 5699 5695 5692 5688 5685 5682 5680 5677 5674 5672
5796 5796 5793 5791 5789 5788 5786 5784 5782 5780 5777 5775 5772 5769 5766 5763 5759 5756 5752 5749 5745 5741 5737 5734 5730 5727 5724 5720 5716 5712 5709 5705 5701 5698 5694 5691 5687 5684 5681 5678 5676 5673 5670 5668
5788 5787 5786 5785 5783 5781 5780 5777 5775 5773 5771 5768 5766 5763 5760 5757 5754 5751 5747 5743 5740 5736 5732 5729 5726 5722 5719 5715 5711 5708 5704 5700 5696 5693 5689 5686 5683 5680 5677 5674 5671 5668 5666 5663
5781 5780 5779 5778 5776 5775 5773 5771 5769 5767 5764 5762 5760 5757 5754 5751 5748 5745 5742 5738 5735 5731 5728 5724 5721 5717 5714 5710 5706 5703 5699 5695 5691 5688 5684 5682 5679 5676 5673 5670 5667 5664 5661 5658
5774 5773 5772 5771 5769 5768 5766 5765 5763 5761 5758 5756 5754 5751 5748 5745 5742 5739 5736 5733 5729 5726 5722 5719 5715 5712 5708 5705 5701 5697 5693 5689 5686 5683 5680 5677 5675 5672 5668 5666 5662 5660 5657 5654
5766 5765 5764 5763 5762 5761 5759 5758 5756 5754 5752 5749 5747 5745 5742 5739 5736 5733 5730 5727 5724 5720 5717 5713 5710 5706 5702 5699 5695 5691 5688 5684 5681 5678 5675 5673 5670 5667 5664 5661 5658 5656 5653 5651
5758 5757 5757 5756 5754 5753 5752 5750 5748 5747 5745 5743 5740 5738 5735 5732 5730 5727 5724 5721 5717 5714 5710 5707 5704 5700 5696 5693 5689 5686 5682 5679 5676 5674 5671 5668 5665 5663 5660 5657 5655 5652 5650 5647
5749 5749 5748 5747 5746 5745 5744 5742 5741 5739 5737 5735 5733 5730 5728 5725 5723 5720 5717 5714 5710 5707 5704 5700 5697 5694 5690 5687 5683 5680 5677 5674 5671 5669 5667 5664 5661 5659 5656 5654 5651 5649 5646 5644
5741 5740 5739 5738 5738 5736 5735 5734 5732 5731 5729 5727 5725 5723 5720 5718 5715 5712 5709 5706 5703 5700 5696 5693 5690 5686 5683 5680 5677 5674 5672 5669 5666 5664 5662 5660 5657 5655 5653 5650 5647 5645 5643 5640
5732 5731 5730 5729 5728 5727 5726 5725 5723 5722 5720 5718 5716 5714 5712 5709 5707 5704 5701 5698 5694 5691 5688 5685 5681 5678 5675 5673 5670 5668 5666 5663 5661 5659 5657 5655 5653 5651 5648 5646 5643 5641 5639 5636
5722 5722 5721 5720 5719 5718 5717 5716 5714 5713 5711 5709 5707 5705 5703 5700 5698 5695 5692 5689 5686 5683 5679 5676 5673 5670 5668 5665 5663 5661 5659 5658 5656 5654 5652 5650 5648 5646 5644 5641 5639 5637 5634 5632
5712 5711 5711 5710 5709 5708 5707 5706 5704 5703 5701 5699 5697 5695 5693 5691 5688 5686 5683 5680 5677 5674 5671 5668 5665 5663 5660 5657 5656 5654 5653 5651 5650 5648 5646 5645 5643 5641 5639 5636 5634 5632 5629 5627
5701 5701 5700 5700 5699 5698 5697 5695 5694 5693 5691 5689 5687 5685 5683 5681 5679 5676 5674 5671 5668 5665 5663 5660 5658 5655 5653 5651 5649 5647 5646 5645 5643 5642 5641 5639 5637 5635 5633 5631 5629 5627 5624 5622
5690 5690 5689 5689 5688 5687 5686 5685 5683 5682 5681 5679 5677 5675 5674 5672 5669 5667 5664 5662 5660 5657 5655 5652 5650 5648 5646 5644 5642 5641 5639 5638 5637 5636 5634 5633 5631 5630 5628 5626 5624 5621 5619 5617
5680 5679 5679 5678 5678 5677 5676 5674 5673 5671 5670 5669 5667 5665 5664 5662 5660 5658 5656 5654 5652 5649 5647 5645 5643 5641 5639 5637 5636 5634 5633 5631 5631 5629 5628 5627 5625 5624 5622 5621 5619 5616 5614 5612
5669 5668 5668 5667 5667 5666 5665 5664 5662 5661 5660 5659 5657 5655 5653 5652 5650 5649 5648 5646 5644 5641 5639 5637 5636 5634 5633 5631 5629 5628 5627 5625 5624 5623 5622 5621 5620 5618 5617 5615 5614 5611 5609 5607
5658 5658 5657 5657 5656 5655 5655 5654 5652 5651 5650 5648 5647 5645 5644 5642 5641 5640 5639 5638 5636 5634 5632 5631 5630 5628 5627 5625 5623 5622 5621 5620 5618 5617 5616 5615 5614 5613 5612 5610 5609 5607 5605 5603
5648 5648 5647 5647 5646 5645 5644 5643 5642 5641 5640 5639 5637 5636 5635 5633 5633 5632 5631 5630 5628 5627 5626 5625 5623 5622 5620 5619 5618 5616 5615 5614 5613 5611 5610 5609 5609 5607 5606 5605 5604 5603 5602 5600
5637 5637 5637 5636 5636 5635 5634 5633 5632 5632 5630 5629 5628 5627 5626 5625 5624 5624 5623 5622 5621 5620 5618 5617 5616 5615 5614 5613 5612 5611 5609 5608 5607 5606 5605 5604 5603 5602 5601 5600 5600 5599 5598 5596
5627 5627 5627 5627 5626 5625 5625 5624 5623 5622 5621 5620 5619 5618 5618 5617 5616 5616 5615 5614 5613 5612 5611 5610 5609 5608 5607 5606 5605 5604 5603 5602 5601 5600 5599 5599 5598 5597 5596 5596 5595 5594 5594 5593